Jaipur / Sanganer, India

9:10 PM IST on January 22, 2017 (GMT +0530)
Jaipur

Weather History for VIJP - March, 2012

Change the Weather History Date:

Thursday, March 15, 2012

  Actual Average Record
Temperature  
Mean Temperature 70 °F -  
Max Temperature 86 °F - - ()
Min Temperature 55 °F - - ()
Cooling Degree Days 6    
Growing Degree Days 20 (Base 50)    
Moisture  
Dew Point 38 °F    
Average Humidity 28    
Maximum Humidity 48    
Minimum Humidity 8    
Precipitation  
Precipitation 0.00 in - - ()
Sea Level Pressure  
Sea Level Pressure 29.98 in    
Wind  
Wind Speed 2 mph ()    
Max Wind Speed 9 mph    
Max Gust Speed -    
Visibility 2.0 miles    
Events      
T = Trace of Precipitation, MM = Missing Value Source: Averaged Metar Reports

Daily Weather History Graph

Daily Weather History Graph

Search for Another Location

Airport or City:

Trip Planner

Search our weather history database for the weather conditions in past years. The results will help you decide how hot, cold, wet, or windy it might be!

Date:

Astronomy

Mar. 15, 2012 Rise Set
Actual Time 6:36 AM IST 6:35 PM IST
Civil Twilight 6:12 AM IST 6:58 PM IST
Nautical Twilight 5:46 AM IST 7:25 PM IST
Astronomical Twilight 5:19 AM IST 7:52 PM IST
Moon 1:06 AM IST (3/15) 11:56 AM IST (3/15)
Length of Visible Light 12h 45m
Length of Day
11h 59m
Waning Gibbous, 48% of the Moon is Illuminated
Mar 15
Waning Gibbous
Mar 22
New
Mar 31
First Quarter
Apr 7
Full
Apr 13
Last Quarter

Hourly Weather History & Observations

Time (IST) Temp. Dew Point Humidity Pressure Visibility Wind Dir Wind Speed Gust Speed Precip Events Conditions
12:00 AM 64.4 °F 35.6 °F 34% 30.04 in 1.9 mi Calm Calm - N/A   Haze
1:00 AM 62.6 °F 35.6 °F 37% 30.01 in 1.9 mi Calm Calm - N/A   Haze
2:00 AM 64.4 °F 35.6 °F 34% 30.01 in 1.9 mi Calm Calm - N/A   Haze
2:30 AM 64 °F 37 °F 25% 29.97 in 1 mi Calm Calm - -   Haze
3:00 AM 62.6 °F 35.6 °F 37% 29.98 in 1.9 mi Calm Calm - N/A   Haze
4:00 AM 60.8 °F 35.6 °F 39% 29.98 in 1.9 mi Calm Calm - N/A   Haze
5:00 AM 60.8 °F 35.6 °F 39% 29.98 in 1.9 mi Calm Calm - N/A   Haze
5:30 AM 58 °F 36 °F 33% 29.97 in 1 mi Calm Calm - -   Haze
5:30 AM 57.2 °F 35.6 °F 44% 29.98 in 1.9 mi Calm Calm - N/A   Haze
6:00 AM 57.2 °F 37.4 °F 48% 29.98 in 1.9 mi Calm Calm - N/A   Haze
6:30 AM 59.0 °F 39.2 °F 48% 30.01 in 1.9 mi Calm Calm - N/A   Haze
7:00 AM 57.2 °F 37.4 °F 48% 30.01 in 1.9 mi Calm Calm - N/A   Haze
8:00 AM 64.4 °F 41.0 °F 42% 30.04 in 1.9 mi Calm Calm - N/A   Haze
8:30 AM 68 °F 37 °F 21% 29.99 in 1 mi East 2.3 mph - -   Haze
9:00 AM 71.6 °F 37.4 °F 29% 30.04 in 1.9 mi East 6.9 mph - N/A   Haze
10:00 AM 75.2 °F 39.2 °F 27% 30.04 in 1.9 mi SSE 4.6 mph - N/A   Haze
11:00 AM 77.0 °F 39.2 °F 26% 30.04 in 2.5 mi SSE 4.6 mph - N/A   Haze
11:30 AM 81 °F 37 °F 12% 29.97 in 2 mi West 2.3 mph - -   Haze
12:00 PM 78.8 °F 39.2 °F 24% 30.04 in 2.5 mi WSW 5.8 mph - N/A   Haze
1:00 PM 82.4 °F 39.2 °F 21% 30.01 in 2.5 mi West 8.1 mph - N/A   Haze
2:00 PM 84.2 °F 37.4 °F 19% 29.98 in 2.5 mi West 9.2 mph - N/A   Haze
2:30 PM 86 °F 34 °F 8% 29.87 in 2 mi West 9.2 mph - -   Haze
2:30 PM 86.0 °F 33.8 °F 15% 29.95 in 2.8 mi West 9.2 mph - N/A   Haze
5:00 PM 86.0 °F 37.4 °F 18% 29.92 in 3.1 mi WNW 6.9 mph - N/A   Haze
5:30 PM 86.0 °F 37.4 °F 18% 29.92 in 3.1 mi NW 5.8 mph - N/A   Haze
6:00 PM 86.0 °F 37.4 °F 18% 29.92 in 2.5 mi NW 4.6 mph - N/A   Haze
7:00 PM 82.4 °F 39.2 °F 21% 29.92 in 2.5 mi Variable 2.3 mph - N/A   Haze
8:00 PM 78.8 °F 39.2 °F 24% 29.95 in 2.5 mi Variable 3.5 mph - N/A   Haze
8:30 PM 78 °F 38 °F 14% 29.88 in 2 mi NNE 2.3 mph - -   Haze
10:00 PM 73.4 °F 41.0 °F 31% 29.98 in 1.9 mi ENE 5.8 mph - N/A   Haze
10:30 PM 75.2 °F 41.0 °F 29% 29.98 in 1.9 mi Variable 3.5 mph - N/A   Haze
11:00 PM 71.6 °F 42.8 °F 35% 29.98 in 1.9 mi Calm Calm - N/A   Haze
11:30 PM 73 °F 41 °F 21% 29.91 in 1 mi East 5.8 mph - -   Haze